Home   Weather   Nablus   Past weeks

Flag for Palestinian Territories Past Weather in Nablus, West Bank, Palestinian Territories — Yesterday and Last 2 Weeks

Now
75 °F

Clear.


Feels Like: 77 °F
Forecast: 62 / 81 °F
Wind: 3 mph from North

Location: Ben Gurion International Airport

Current Time: Sep 29, 2016 at 11:34:51 PM

Latest Report: Sep 29, 2016 at 10:50 PM


Visibility: 10 mi

Pressure: 30.01 "Hg (28.22 "Hg at 534m altitude)

Humidity: 69%

Dew Point: 64 °F

Location of NablusLocation

Past Weather in Nablus — Graph

°F

Nablus Temperature Yesterday

Maximum temperature yesterday: 82 °F (at 10:50 AM)
Minimum temperature yesterday: 70 °F (at 5:20 AM)
Average temperature yesterday: 77 °F

High & Low Weather Summary for the Past Weeks

 TemperatureHumidityPressure
High90 °F (Sep 18, 12:20 PM)83% (Sep 18, 6:20 AM)30.07 "Hg (Sep 18, 6:20 AM)
Low68 °F (Sep 25, 6:50 AM)24% (Sep 25, 11:50 AM)29.74 "Hg (Sep 25, 1:20 PM)
Average79 °F60%29.91 "Hg
* Reported Sep 14 10:20 PM — Sep 29 10:20 PM, Nablus, Weather by CustomWeather, © 2016

Note: Actual official high and low records may vary slightly from our data, if they occured in-between our weather recording intervals... More about our weather records

Advertising

Nablus Weather History for the Previous 24 Hours

Scroll right to see more
 ConditionsComfort  
Time TempWeatherWind HumidityBarometerVisibility
10:20 PM
Thu, Sep 29
75 °FClear.3 mph69%30.01 "Hg10 mi
9:50 PM77 °FClear.3 mph65%30.01 "Hg10 mi
9:20 PM77 °FClear.5 mph65%30.01 "Hg10 mi
8:50 PM77 °FClear.7 mph65%30.01 "Hg10 mi
8:20 PM79 °FClear.7 mph61%29.98 "Hg10 mi
7:50 PM79 °FClear.9 mph61%29.98 "Hg10 mi
7:20 PM79 °FClear.12 mph61%29.98 "Hg10 mi
6:50 PM79 °FClear.14 mph61%29.98 "Hg10 mi
6:20 PM81 °FSunny.16 mph58%29.95 "Hg10 mi
5:50 PM82 °FSunny.13 mph51%29.95 "Hg10 mi
5:20 PM82 °FSunny.16 mph48%29.95 "Hg10 mi
4:50 PM84 °FSunny.15 mph45%29.95 "Hg10 mi
4:20 PM84 °FSunny.15 mph45%29.95 "Hg10 mi
3:50 PM84 °FSunny.17 mph43%29.95 "Hg10 mi
3:20 PM84 °FSunny.17 mph45%29.95 "Hg10 mi
2:50 PM86 °FSunny.16 mph43%29.98 "Hg10 mi
2:20 PM84 °FSunny.14 mph48%29.98 "Hg10 mi
1:50 PM84 °FSunny.16 mph48%29.98 "Hg10 mi
1:20 PM86 °FSunny.15 mph49%29.98 "Hg10 mi
12:50 PM84 °FSunny.14 mph51%30.01 "Hg10 mi
12:20 PM84 °FPassing clouds.10 mph51%30.01 "HgN/A
11:50 AM84 °FPassing clouds.9 mph51%30.04 "HgN/A
11:20 AM82 °FSunny.10 mph51%30.04 "Hg10 mi
10:50 AM82 °FSunny.8 mph51%30.04 "Hg10 mi
10:20 AM81 °FSunny.7 mph58%30.07 "Hg10 mi
9:50 AM81 °FSunny.8 mph58%30.07 "Hg10 mi
9:20 AM79 °FSunny.7 mph61%30.07 "Hg10 mi
8:50 AM79 °FSunny.2 mph61%30.07 "Hg10 mi
7:50 AM73 °FPassing clouds.5 mph69%30.07 "HgN/A
7:20 AM72 °FScattered clouds.3 mph73%30.07 "HgN/A
6:50 AM70 °FScattered clouds.2 mph78%30.07 "HgN/A
6:20 AM70 °FPassing clouds.2 mph78%30.07 "HgN/A
5:50 AM70 °FPassing clouds.2 mph78%30.07 "HgN/A
5:20 AM77 °FPassing clouds.8 mph65%30.07 "HgN/A
4:50 AM68 °FPassing clouds.1 mph78%30.07 "HgN/A
4:20 AM72 °FPassing clouds.2 mph73%30.07 "HgN/A
3:50 AM72 °FPassing clouds.2 mph73%30.07 "HgN/A
3:20 AM72 °FPassing clouds.3 mph73%30.07 "HgN/A
2:50 AM72 °FPassing clouds.5 mph73%30.07 "HgN/A
2:20 AM72 °FPassing clouds.6 mph73%30.07 "HgN/A
1:50 AM72 °FPassing clouds.3 mph73%30.07 "HgN/A
1:20 AM72 °FPassing clouds.3 mph73%30.07 "HgN/A
12:50 AM73 °FPassing clouds.5 mph69%30.07 "HgN/A
12:20 AM73 °FClear.2 mph69%30.07 "Hg10 mi
11:50 PM
Wed, Sep 28
72 °FPassing clouds.2 mph73%30.07 "HgN/A
11:20 PM73 °FPassing clouds.3 mph69%30.07 "HgN/A
Weather by CustomWeather, © 2016

See weather overviewHow to use our weather pages